Powrót do katalogu

STARLINK-34772

AktywnyŁącznośćVLEO
NORAD 65020·PAYLOAD·🇺🇸 United States

Wystrzelony Jul 30, 2025 z Cape Canaveral Space Force Station

Loading…

Następne Przeloty (najbliższe 24 godziny)

TLE

ŚwieżeSource: CelesTrak SupGP

Epoka: Sep 14, 2026, 21:35 UTC

1 65020C 25161F   26257.89979167 -.00054425  00000+0 -16081-2 0  2572
2 65020  53.1573 131.7350 0001125  78.2510 138.7738 15.34415709    18

Śledź STARLINK-34772 w czasie rzeczywistym z AllMySat

Download on the App Store